Time,TemperatureF,DewpointF,PressureIn,WindDirection,WindDirectionDegrees,WindSpeedMPH,WindSpeedGustMPH,Humidity,HourlyPrecipIn,Conditions,Clouds,dailyrainin,SoftwareType,DateUTC
2013-07-26 00:01:00,63.0,61.0,-100.00,East,89,0.0,3.0,93,-99.99,,,-99.99,,2013-07-26 07:01:00,
2013-07-26 00:12:00,62.0,60.0,-100.00,North,-999,0.0,0.0,94,-99.99,,,-99.99,,2013-07-26 07:12:00,
2013-07-26 00:22:00,62.0,60.0,-100.00,North,-999,0.0,0.0,94,-99.99,,,-99.99,,2013-07-26 07:22:00,
2013-07-26 00:43:00,60.0,58.0,-100.00,SW,224,1.0,4.0,94,-99.99,,,-99.99,,2013-07-26 07:43:00,
2013-07-26 00:52:00,60.0,58.0,-100.00,SW,224,1.0,4.0,94,-99.99,,,-99.99,,2013-07-26 07:52:00,
2013-07-26 01:02:00,61.0,59.0,-100.00,ESE,109,1.0,3.0,93,-99.99,,,-99.99,,2013-07-26 08:02:00,
2013-07-26 01:22:00,62.0,59.0,-100.00,ENE,62,2.0,4.0,90,-99.99,,,-99.99,,2013-07-26 08:22:00,
2013-07-26 01:32:00,59.0,57.0,-100.00,SE,134,1.0,6.0,93,-99.99,,,-99.99,,2013-07-26 08:32:00,
2013-07-26 01:44:00,59.0,57.0,-100.00,SE,134,1.0,6.0,93,-99.99,,,-99.99,,2013-07-26 08:44:00,
2013-07-26 01:52:00,59.0,59.0,-100.00,SSW,196,1.0,5.0,99,-99.99,,,-99.99,,2013-07-26 08:52:00,
2013-07-26 02:02:00,59.0,59.0,-100.00,SSW,196,1.0,5.0,99,-99.99,,,-99.99,,2013-07-26 09:02:00,
2013-07-26 02:12:00,59.0,59.0,-100.00,SSW,196,1.0,5.0,99,-99.99,,,-99.99,,2013-07-26 09:12:00,
2013-07-26 02:32:00,59.0,58.0,-100.00,SE,143,1.0,3.0,98,-99.99,,,-99.99,,2013-07-26 09:32:00,
2013-07-26 03:02:00,58.0,58.0,-100.00,WSW,258,1.0,3.0,100,-99.99,,,-99.99,,2013-07-26 10:02:00,
2013-07-26 03:11:00,58.0,58.0,-100.00,WSW,258,1.0,3.0,100,-99.99,,,-99.99,,2013-07-26 10:11:00,
2013-07-26 03:22:00,58.0,58.0,-100.00,SSE,161,0.0,1.0,99,-99.99,,,-99.99,,2013-07-26 10:22:00,
2013-07-26 03:32:00,58.0,58.0,-100.00,SSE,161,0.0,1.0,99,-99.99,,,-99.99,,2013-07-26 10:32:00,
2013-07-26 03:42:00,58.0,58.0,-100.00,SSE,161,0.0,1.0,99,-99.99,,,-99.99,,2013-07-26 10:42:00,
2013-07-26 04:02:00,58.0,58.0,-100.00,East,82,1.0,4.0,100,-99.99,,,-99.99,,2013-07-26 11:02:00,
2013-07-26 04:12:00,58.0,58.0,-100.00,North,-999,0.0,0.0,100,-99.99,,,-99.99,,2013-07-26 11:12:00,
2013-07-26 04:22:00,58.0,58.0,-100.00,North,-999,0.0,0.0,100,-99.99,,,-99.99,,2013-07-26 11:22:00,
2013-07-26 04:32:00,54.0,54.0,-100.00,SSW,210,0.0,3.0,100,-99.99,,,-99.99,,2013-07-26 11:32:00,
2013-07-26 04:43:00,54.0,54.0,-100.00,SSW,210,0.0,3.0,100,-99.99,,,-99.99,,2013-07-26 11:43:00,
2013-07-26 04:52:00,55.0,55.0,-100.00,ENE,68,1.0,4.0,100,-99.99,,,-99.99,,2013-07-26 11:52:00,
2013-07-26 05:01:00,54.0,54.0,-100.00,North,-999,0.0,0.0,100,-99.99,,,-99.99,,2013-07-26 12:01:00,
2013-07-26 05:12:00,54.0,54.0,-100.00,North,-999,0.0,0.0,100,-99.99,,,-99.99,,2013-07-26 12:12:00,
2013-07-26 05:22:00,54.0,54.0,-100.00,North,-999,0.0,0.0,100,-99.99,,,-99.99,,2013-07-26 12:22:00,
2013-07-26 05:33:00,54.0,54.0,-100.00,North,-999,0.0,0.0,100,-99.99,,,-99.99,,2013-07-26 12:33:00,
2013-07-26 05:43:00,54.0,54.0,-100.00,North,-999,0.0,0.0,100,-99.99,,,-99.99,,2013-07-26 12:43:00,
2013-07-26 05:53:00,54.0,54.0,-100.00,North,-999,0.0,0.0,100,-99.99,,,-99.99,,2013-07-26 12:53:00,
2013-07-26 06:11:00,55.0,55.0,-100.00,South,179,0.0,2.0,100,-99.99,,,-99.99,,2013-07-26 13:11:00,
2013-07-26 06:43:00,54.0,54.0,-100.00,East,100,2.0,5.0,100,-99.99,,,-99.99,,2013-07-26 13:43:00,
2013-07-26 06:53:00,54.0,54.0,-100.00,East,100,2.0,5.0,100,-99.99,,,-99.99,,2013-07-26 13:53:00,
2013-07-26 07:02:00,54.0,54.0,-100.00,East,100,2.0,5.0,100,-99.99,,,-99.99,,2013-07-26 14:02:00,
2013-07-26 07:12:00,53.0,53.0,-100.00,North,-999,-999.0,-999.0,99,-99.99,,,-99.99,,2013-07-26 14:12:00,
2013-07-26 07:43:00,55.0,55.0,-100.00,West,267,0.0,2.0,100,-99.99,,,-99.99,,2013-07-26 14:43:00,
2013-07-26 07:53:00,57.0,56.0,-100.00,SSW,209,0.0,1.0,97,-99.99,,,-99.99,,2013-07-26 14:53:00,
2013-07-26 08:12:00,59.0,57.0,-100.00,SSE,168,0.0,3.0,92,-99.99,,,-99.99,,2013-07-26 15:12:00,
2013-07-26 08:22:00,64.0,58.0,-100.00,ESE,107,0.0,3.0,81,-99.99,,,-99.99,,2013-07-26 15:22:00,
2013-07-26 08:32:00,64.0,58.0,-100.00,ESE,107,0.0,3.0,81,-99.99,,,-99.99,,2013-07-26 15:32:00,
2013-07-26 08:43:00,66.0,56.0,-100.00,ESE,114,1.0,4.0,71,-99.99,,,-99.99,,2013-07-26 15:43:00,
2013-07-26 08:53:00,66.0,57.0,-100.00,ESE,102,1.0,4.0,73,-99.99,,,-99.99,,2013-07-26 15:53:00,
2013-07-26 09:02:00,66.0,57.0,-100.00,ESE,102,1.0,4.0,73,-99.99,,,-99.99,,2013-07-26 16:02:00,
2013-07-26 09:22:00,68.0,58.0,-100.00,ESE,113,0.0,4.0,71,-99.99,,,-99.99,,2013-07-26 16:22:00,
2013-07-26 09:32:00,68.0,58.0,-100.00,ESE,113,0.0,4.0,71,-99.99,,,-99.99,,2013-07-26 16:32:00,
2013-07-26 09:43:00,69.0,58.0,-100.00,SSE,162,0.0,3.0,68,-99.99,,,-99.99,,2013-07-26 16:43:00,
2013-07-26 09:54:00,69.0,58.0,-100.00,SSE,162,0.0,3.0,68,-99.99,,,-99.99,,2013-07-26 16:54:00,
2013-07-26 10:12:00,72.0,58.0,-100.00,WSW,237,1.0,4.0,61,-99.99,,,-99.99,,2013-07-26 17:12:00,
2013-07-26 10:22:00,72.0,58.0,-100.00,WSW,237,1.0,4.0,61,-99.99,,,-99.99,,2013-07-26 17:22:00,
2013-07-26 10:33:00,72.0,58.0,-100.00,WSW,237,1.0,4.0,61,-99.99,,,-99.99,,2013-07-26 17:33:00,
2013-07-26 10:43:00,77.0,55.0,-100.00,North,-999,-999.0,-999.0,46,-99.99,,,-99.99,,2013-07-26 17:43:00,
2013-07-26 10:53:00,77.0,55.0,-100.00,SSW,199,1.0,5.0,46,-99.99,,,-99.99,,2013-07-26 17:53:00,
2013-07-26 11:02:00,80.0,54.0,-100.00,ESE,114,1.0,5.0,41,-99.99,,,-99.99,,2013-07-26 18:02:00,
2013-07-26 11:12:00,80.0,54.0,-100.00,ESE,114,1.0,5.0,41,-99.99,,,-99.99,,2013-07-26 18:12:00,
2013-07-26 11:22:00,80.0,53.0,-100.00,East,97,2.0,5.0,40,-99.99,,,-99.99,,2013-07-26 18:22:00,
2013-07-26 11:32:00,80.0,53.0,-100.00,East,97,2.0,5.0,40,-99.99,,,-99.99,,2013-07-26 18:32:00,
2013-07-26 11:43:00,82.0,52.0,-100.00,ESE,112,0.0,5.0,36,-99.99,,,-99.99,,2013-07-26 18:43:00,
2013-07-26 11:52:00,81.0,52.0,-100.00,SSW,196,0.0,2.0,37,-99.99,,,-99.99,,2013-07-26 18:52:00,
2013-07-26 12:02:00,81.0,52.0,-100.00,SSW,196,0.0,2.0,37,-99.99,,,-99.99,,2013-07-26 19:02:00,
2013-07-26 12:22:00,84.0,51.0,-100.00,ESE,109,0.0,7.0,32,-99.99,,,-99.99,,2013-07-26 19:22:00,
2013-07-26 12:32:00,84.0,51.0,-100.00,ESE,109,0.0,7.0,32,-99.99,,,-99.99,,2013-07-26 19:32:00,
2013-07-26 12:43:00,88.0,50.0,-100.00,North,-999,0.0,0.0,27,-99.99,,,-99.99,,2013-07-26 19:43:00,
2013-07-26 13:12:00,87.0,49.0,-100.00,North,-999,0.0,0.0,27,-99.99,,,-99.99,,2013-07-26 20:12:00,
2013-07-26 13:22:00,87.0,49.0,-100.00,North,-999,0.0,0.0,27,-99.99,,,-99.99,,2013-07-26 20:22:00,
2013-07-26 15:32:00,89.0,50.0,-100.00,SW,227,15.0,26.0,26,-99.99,,,-99.99,,2013-07-26 22:32:00,
2013-07-26 15:43:00,89.0,50.0,-100.00,SW,226,13.0,25.0,26,-99.99,,,-99.99,,2013-07-26 22:43:00,
2013-07-26 15:53:00,89.0,50.0,-100.00,SW,226,13.0,25.0,26,-99.99,,,-99.99,,2013-07-26 22:53:00,
2013-07-26 16:02:00,89.0,47.0,-100.00,WSW,248,15.0,27.0,24,-99.99,,,-99.99,,2013-07-26 23:02:00,
2013-07-26 16:11:00,89.0,47.0,-100.00,WSW,248,15.0,27.0,24,-99.99,,,-99.99,,2013-07-26 23:11:00,
2013-07-26 16:22:00,90.0,46.0,-100.00,WSW,244,15.0,30.0,22,-99.99,,,-99.99,,2013-07-26 23:22:00,
2013-07-26 16:32:00,90.0,46.0,-100.00,WSW,244,15.0,30.0,22,-99.99,,,-99.99,,2013-07-26 23:32:00,
2013-07-26 16:43:00,89.0,47.0,-100.00,WSW,246,17.0,28.0,24,-99.99,,,-99.99,,2013-07-26 23:43:00,
2013-07-26 16:53:00,89.0,49.0,-100.00,WSW,248,17.0,30.0,25,-99.99,,,-99.99,,2013-07-26 23:53:00,
2013-07-26 17:02:00,89.0,49.0,-100.00,WSW,248,17.0,30.0,25,-99.99,,,-99.99,,2013-07-27 00:02:00,
2013-07-26 17:12:00,89.0,47.0,-100.00,WSW,243,16.0,26.0,24,-99.99,,,-99.99,,2013-07-27 00:12:00,
2013-07-26 17:22:00,89.0,47.0,-100.00,WSW,243,16.0,26.0,24,-99.99,,,-99.99,,2013-07-27 00:22:00,
2013-07-26 17:32:00,88.0,48.0,-100.00,WSW,244,16.0,24.0,25,-99.99,,,-99.99,,2013-07-27 00:32:00,
2013-07-26 17:42:00,88.0,48.0,-100.00,WSW,241,16.0,25.0,25,-99.99,,,-99.99,,2013-07-27 00:42:00,
2013-07-26 17:53:00,88.0,48.0,-100.00,WSW,241,16.0,25.0,25,-99.99,,,-99.99,,2013-07-27 00:53:00,
2013-07-26 18:02:00,88.0,47.0,-100.00,WSW,247,16.0,27.0,24,-99.99,,,-99.99,,2013-07-27 01:02:00,
2013-07-26 18:11:00,88.0,47.0,-100.00,WSW,247,16.0,27.0,24,-99.99,,,-99.99,,2013-07-27 01:11:00,
2013-07-26 18:22:00,87.0,47.0,-100.00,WSW,247,17.0,24.0,25,-99.99,,,-99.99,,2013-07-27 01:22:00,
2013-07-26 18:32:00,87.0,47.0,-100.00,WSW,247,17.0,24.0,25,-99.99,,,-99.99,,2013-07-27 01:32:00,
2013-07-26 18:43:00,87.0,47.0,-100.00,WSW,247,17.0,24.0,25,-99.99,,,-99.99,,2013-07-27 01:43:00,
2013-07-26 19:02:00,85.0,47.0,-100.00,North,-999,-999.0,-999.0,26,-99.99,,,-99.99,,2013-07-27 02:02:00,
2013-07-26 19:12:00,85.0,46.0,-100.00,WSW,240,17.0,24.0,26,-99.99,,,-99.99,,2013-07-27 02:12:00,
2013-07-26 19:22:00,85.0,46.0,-100.00,WSW,240,17.0,24.0,26,-99.99,,,-99.99,,2013-07-27 02:22:00,
2013-07-26 19:43:00,80.0,46.0,-100.00,WSW,240,14.0,20.0,30,-99.99,,,-99.99,,2013-07-27 02:43:00,
2013-07-26 20:02:00,82.0,47.0,-100.00,WSW,243,16.0,24.0,29,-99.99,,,-99.99,,2013-07-27 03:02:00,
2013-07-26 20:12:00,82.0,47.0,-100.00,WSW,243,16.0,24.0,29,-99.99,,,-99.99,,2013-07-27 03:12:00,
2013-07-26 20:22:00,82.0,47.0,-100.00,WSW,243,16.0,24.0,29,-99.99,,,-99.99,,2013-07-27 03:22:00,
2013-07-26 21:02:00,79.0,47.0,-100.00,North,-999,-999.0,-999.0,32,-99.99,,,-99.99,,2013-07-27 04:02:00,
2013-07-26 21:22:00,78.0,47.0,-100.00,SW,233,14.0,22.0,33,-99.99,,,-99.99,,2013-07-27 04:22:00,
2013-07-26 21:32:00,78.0,47.0,-100.00,SW,233,14.0,22.0,33,-99.99,,,-99.99,,2013-07-27 04:32:00,
2013-07-26 21:43:00,78.0,47.0,-100.00,SW,236,12.0,22.0,34,-99.99,,,-99.99,,2013-07-27 04:43:00,
2013-07-26 21:53:00,78.0,47.0,-100.00,SW,236,12.0,22.0,34,-99.99,,,-99.99,,2013-07-27 04:53:00,
2013-07-26 22:12:00,77.0,47.0,-100.00,WSW,239,12.0,19.0,35,-99.99,,,-99.99,,2013-07-27 05:12:00,
2013-07-26 22:22:00,77.0,47.0,-100.00,WSW,239,12.0,19.0,35,-99.99,,,-99.99,,2013-07-27 05:22:00,
2013-07-26 22:32:00,76.0,48.0,-100.00,SW,227,12.0,20.0,37,-99.99,,,-99.99,,2013-07-27 05:32:00,
2013-07-26 22:43:00,76.0,48.0,-100.00,SW,227,12.0,20.0,37,-99.99,,,-99.99,,2013-07-27 05:43:00,
2013-07-26 22:52:00,72.0,48.0,-100.00,WSW,240,3.0,11.0,42,-99.99,,,-99.99,,2013-07-27 05:52:00,
2013-07-26 23:02:00,73.0,48.0,-100.00,West,267,11.0,16.0,41,-99.99,,,-99.99,,2013-07-27 06:02:00,
2013-07-26 23:12:00,73.0,48.0,-100.00,West,267,11.0,16.0,41,-99.99,,,-99.99,,2013-07-27 06:12:00,
2013-07-26 23:22:00,73.0,48.0,-100.00,West,267,11.0,16.0,41,-99.99,,,-99.99,,2013-07-27 06:22:00,
2013-07-26 23:43:00,75.0,47.0,-100.00,North,-999,0.0,0.0,37,-99.99,,,-99.99,,2013-07-27 06:43:00,
2013-07-26 23:52:00,75.0,47.0,-100.00,North,-999,0.0,0.0,37,-99.99,,,-99.99,,2013-07-27 06:52:00,